Find Starlink 30375

NORAD ID: 57732 Int'l Des: 2023-131 Owner: SPXS Country: US Constellation: starlink operational
LEOCIRCULAR

当前视图

正在加载3D地球...

About Starlink 30375

Starlink 30375 (NORAD 57732) is a starlink constellation satellite (v2 mini) launched Sep 1, 2023 by SPXS of US. It operates in LEO, CIRCULAR orbit with a mass of 730.00 kg.

关于 Starlink 30375

正在加载描述...

即将过境

Passes for default location (London). Set your location on the main map for personalized predictions.

高度历史

Loading altitude history...

两行轨道根数

1 57732U 23131A 26177.57622745 .00001266 00000-0 55534-4 0 9996
2 57732 43.0018 262.6751 0000588 175.3468 184.7389 15.27567710156751
Epoch: Jun 26, 2026 • Age: 24 hours

当前状态

高度 485.0 km
速度 7.63 km/s
星下点 38.36°N, 104.27°W
发射日期 Sep 1, 2023
运行时间 2.8 years
类型 internet

技术详情

分类 Payload
质量 730.00 kg
干质量 700.00 kg
总质量 730.00 kg
长度 0.30 m
直径 4.10 m
跨度 29.00 m
形状 Box + pan
制造商 SPXS
平台类型 Starlink V2M
阶段状态 In Orbit
所有者/国家 SPXS/US

Most Searched